Home   Weather   Keflavík   Past weeks
Flag for Iceland

Past Weather in Keflavík, Iceland — Yesterday and Last 2 Weeks

Now
54 °F

Scattered showers. Partly cloudy.


Feels Like: 52 °F
Forecast: 57 / 51 °F
Wind: 6 mph from Southwest

Location: Keflavikurflugvollur

Current Time: Jul 17, 2019 at 2:46:39 am

Latest Report: Jul 17, 2019 at 2:00 am


Visibility: 3 mi

Pressure: 29.59 "Hg

Humidity: 100%

Dew Point: 54 °F

Location of KeflavíkLocation

Past Weather in Keflavík — Graph

°F

Keflavík Temperature Yesterday

Maximum temperature yesterday: 61 °F (at 2:00 pm)
Minimum temperature yesterday: 54 °F (at 1:00 am)
Average temperature yesterday: 56 °F

High & Low Weather Summary for the Past Weeks

 TemperatureHumidityPressure
High63 °F (Jul 7, 3:30 pm)100% (Jul 3, 12:00 am)30.18 "Hg (Jul 3, 12:00 am)
Low45 °F (Jul 2, 1:00 am)39% (Jul 6, 12:00 pm)29.59 "Hg (Jul 16, 9:00 pm)
Average53 °F83%29.97 "Hg
* Reported Jul 2 1:00 am — Jul 17 1:30 am, Keflavík. Weather by CustomWeather, © 2019

Note: Actual official high and low records may vary slightly from our data, if they occured in-between our weather recording intervals... More about our weather records

Advertising

Keflavík Weather History for the Previous 24 Hours

Scroll right to see more
 ConditionsComfort  
Time TempWeatherWind HumidityBarometerVisibility
1:30 am
Wed, Jul 17
54 °FPartly cloudy.6 mph100%29.59 "Hg3 mi
1:00 am54 °FScattered showers. Partly cloudy.6 mph100%29.59 "Hg6 mi
12:30 am54 °FScattered showers. Partly cloudy.7 mph100%29.59 "Hg6 mi
12:00 am54 °FLight rain. Partly cloudy.6 mph100%29.59 "Hg4 mi
11:30 pm
Tue, Jul 16
54 °FRain. Fog.6 mph100%29.59 "Hg2 mi
11:00 pm54 °FRain. Fog.6 mph100%29.59 "Hg1 mi
10:30 pm54 °FRain. Fog.3 mph100%29.59 "Hg3 mi
10:00 pm55 °FLight rain. Mostly cloudy.2 mph100%29.59 "HgN/A
9:30 pm55 °FLight rain. Mostly cloudy.3 mph100%29.59 "HgN/A
9:00 pm55 °FLight rain. More clouds than sun.6 mph100%29.59 "HgN/A
8:30 pm55 °FLight rain. More clouds than sun.6 mph100%29.62 "HgN/A
8:00 pm55 °FLight rain. More clouds than sun.7 mph100%29.62 "HgN/A
7:30 pm55 °FLight rain. Mostly cloudy.8 mph100%29.62 "HgN/A
7:00 pm55 °FLight rain. Mostly cloudy.8 mph100%29.62 "HgN/A
6:30 pm55 °FRain. Mostly cloudy.6 mph100%29.62 "HgN/A
6:00 pm55 °FLight rain. Mostly cloudy.6 mph100%29.62 "HgN/A
5:30 pm55 °FRain. Cloudy.7 mph100%29.62 "HgN/A
5:00 pm55 °FRain. Fog.10 mph100%29.62 "Hg5 mi
4:30 pm59 °FScattered showers. Broken clouds.5 mph88%29.62 "HgN/A
4:00 pm59 °FBroken clouds.9 mph82%29.62 "HgN/A
3:30 pm61 °FPartly sunny.8 mph72%29.62 "HgN/A
3:00 pm61 °FPartly sunny.8 mph77%29.65 "HgN/A
2:30 pm61 °FBroken clouds.13 mph77%29.65 "HgN/A
2:00 pm61 °FBroken clouds.12 mph72%29.65 "HgN/A
1:30 pm59 °FBroken clouds.10 mph88%29.65 "HgN/A
1:00 pm57 °FPartly sunny.12 mph88%29.68 "HgN/A
12:30 pm57 °FScattered showers. Partly sunny.10 mph88%29.68 "HgN/A
12:00 pm57 °FPartly sunny.12 mph88%29.68 "HgN/A
11:30 am57 °FPartly sunny.14 mph88%29.68 "HgN/A
11:00 am57 °FPartly sunny.9 mph88%29.68 "HgN/A
10:30 am57 °FPartly sunny.10 mph94%29.68 "HgN/A
10:00 am57 °FPartly sunny.3 mph94%29.68 "HgN/A
9:30 am55 °FScattered showers. Partly sunny.5 mph100%29.68 "HgN/A
9:00 am55 °FScattered showers. Partly sunny.5 mph100%29.71 "HgN/A
8:30 am55 °FLight rain. More clouds than sun.6 mph94%29.71 "HgN/A
8:00 am55 °FBroken clouds.7 mph94%29.71 "HgN/A
7:30 am55 °FDrizzle. Broken clouds.9 mph94%29.71 "HgN/A
7:00 am54 °FLight rain. Broken clouds.8 mph100%29.71 "HgN/A
6:30 am54 °FScattered showers. Broken clouds.8 mph100%29.74 "HgN/A
6:00 am54 °FLight rain. Broken clouds.9 mph100%29.74 "HgN/A
5:30 am54 °FDrizzle. Broken clouds.9 mph100%29.74 "HgN/A
5:00 am54 °FLight rain. Mostly cloudy.10 mph100%29.74 "HgN/A
4:30 am54 °FLight rain. Mostly cloudy.12 mph100%29.77 "HgN/A
4:00 am54 °FLight rain. Mostly cloudy.9 mph94%29.77 "HgN/A
3:30 am54 °FPartly cloudy.7 mph94%29.77 "HgN/A
3:00 am54 °FPartly cloudy.7 mph94%29.77 "HgN/A
2:30 am54 °FPartly cloudy.7 mph94%29.80 "HgN/A
Weather by CustomWeather, © 2019

See weather overview